| time (UTC) | temp C | wind direction | speed KPH | gust KPH | rain 1hr cm | rain 24hr cm | rain mn cm | humidity % | barometer mb |
| 20260504212503 | 16 | 226 | 1.6 | 14.5 | 0.00 | 0.05 | 0.05 | 54 | 1004.6 |
| 20260504212003 | 16 | 214 | 3.2 | 12.9 | 0.00 | 0.05 | 0.05 | 53 | 1004.7 |
| 20260504211503 | 16 | 266 | 4.8 | 14.5 | 0.00 | 0.05 | 0.05 | 53 | 1004.7 |
| 20260504211003 | 16 | 223 | 1.6 | 9.7 | 0.00 | 0.05 | 0.05 | 52 | 1004.7 |
| 20260504210503 | 17 | 237 | 0.0 | 3.2 | 0.00 | 0.05 | 0.05 | 53 | 1004.7 |
| 20260504210004 | 17 | 240 | 0.0 | 14.5 | 0.00 | 0.05 | 0.05 | 53 | 1004.6 |
| 20260504205503 | 17 | 226 | 8.0 | 16.1 | 0.00 | 0.05 | 0.05 | 54 | 1004.6 |
| 20260504205003 | 17 | 258 | 0.0 | 4.8 | 0.00 | 0.05 | 0.05 | 55 | 1004.5 |
| 20260504204503 | 16 | 258 | 0.0 | 8.0 | 0.00 | 0.05 | 0.05 | 57 | 1004.6 |
| 20260504204003 | 16 | 222 | 1.6 | 20.9 | 0.00 | 0.05 | 0.05 | 55 | 1004.5 |
| 20260504203503 | 16 | 219 | 0.0 | 20.9 | 0.00 | 0.05 | 0.05 | 56 | 1004.5 |
| 20260504203003 | 16 | 235 | 1.6 | 3.2 | 0.00 | 0.05 | 0.05 | 57 | 1004.5 |
| 20260504202003 | 15 | 247 | 1.6 | 16.1 | 0.00 | 0.05 | 0.05 | 58 | 1004.6 |
| 20260504201503 | 15 | 248 | 4.8 | 12.9 | 0.00 | 0.05 | 0.05 | 57 | 1004.5 |
| 20260504201003 | 15 | 237 | 8.0 | 20.9 | 0.00 | 0.05 | 0.05 | 58 | 1004.7 |
| 20260504200503 | 15 | 241 | 0.0 | 14.5 | 0.00 | 0.05 | 0.05 | 59 | 1004.6 |
| 20260504200004 | 15 | 240 | 3.2 | 16.1 | 0.00 | 0.05 | 0.05 | 57 | 1004.6 |
| 20260504195003 | 16 | 298 | 0.0 | 11.3 | 0.00 | 0.05 | 0.05 | 58 | 1004.6 |
| 20260504194503 | 16 | 215 | 1.6 | 8.0 | 0.00 | 0.05 | 0.05 | 59 | 1004.5 |
| 20260504193504 | 16 | 242 | 1.6 | 9.7 | 0.00 | 0.05 | 0.05 | 60 | 1004.5 |
| 20260504193003 | 16 | 315 | 0.0 | 3.2 | 0.00 | 0.05 | 0.05 | 58 | 1004.4 |
| 20260504192503 | 15 | 216 | 0.0 | 16.1 | 0.00 | 0.05 | 0.05 | 60 | 1004.5 |
| 20260504192003 | 15 | 236 | 4.8 | 22.5 | 0.00 | 0.05 | 0.05 | 60 | 1004.5 |
| 20260504191503 | 15 | 266 | 1.6 | 19.3 | 0.00 | 0.05 | 0.05 | 59 | 1004.5 |
| 20260504191003 | 15 | 263 | 0.0 | 12.9 | 0.00 | 0.05 | 0.05 | 60 | 1004.5 |
| 20260504190503 | 16 | 227 | 1.6 | 9.7 | 0.00 | 0.05 | 0.05 | 59 | 1004.6 |
| 20260504190003 | 16 | 307 | 1.6 | 9.7 | 0.00 | 0.05 | 0.05 | 58 | 1004.5 |
| 20260504185504 | 16 | 244 | 0.0 | 14.5 | 0.00 | 0.05 | 0.05 | 60 | 1004.6 |
| 20260504185003 | 15 | 297 | 1.6 | 20.9 | 0.00 | 0.05 | 0.05 | 62 | 1004.7 |
| 20260504184503 | 15 | 325 | 4.8 | 19.3 | 0.00 | 0.05 | 0.05 | 61 | 1004.7 |
| 20260504184003 | 14 | 236 | 3.2 | 24.1 | 0.00 | 0.05 | 0.05 | 62 | 1004.7 |
| 20260504183503 | 14 | 235 | 3.2 | 14.5 | 0.00 | 0.05 | 0.05 | 64 | 1004.8 |
| 20260504183003 | 14 | 221 | 1.6 | 24.1 | 0.00 | 0.05 | 0.05 | 65 | 1004.7 |
| 20260504182003 | 15 | 216 | 4.8 | 14.5 | 0.00 | 0.05 | 0.05 | 63 | 1004.9 |
| 20260504181503 | 15 | 231 | 6.4 | 22.5 | 0.00 | 0.05 | 0.05 | 62 | 1004.9 |
| 20260504181004 | 15 | 223 | 11.3 | 37.0 | 0.00 | 0.05 | 0.05 | 64 | 1004.9 |
| 20260504180503 | 15 | 259 | 3.2 | 29.0 | 0.00 | 0.05 | 0.05 | 66 | 1004.9 |
| 20260504180004 | 14 | 291 | 1.6 | 27.4 | 0.00 | 0.05 | 0.05 | 68 | 1005.0 |
| 20260504175503 | 13 | 222 | 11.3 | 27.4 | 0.00 | 0.05 | 0.05 | 69 | 1005.0 |
| 20260504175003 | 14 | 240 | 8.0 | 20.9 | 0.00 | 0.05 | 0.05 | 68 | 1005.0 |
| 20260504174503 | 13 | 233 | 6.4 | 25.7 | 0.00 | 0.05 | 0.05 | 72 | 1005.1 |
| 20260504174004 | 13 | 301 | 1.6 | 14.5 | 0.00 | 0.05 | 0.05 | 72 | 1005.2 |
| 20260504173503 | 13 | 240 | 1.6 | 22.5 | 0.03 | 0.05 | 0.05 | 78 | 1005.2 |
| 20260504173003 | 12 | 303 | 4.8 | 27.4 | 0.03 | 0.05 | 0.05 | 77 | 1005.2 |
| 20260504172503 | 12 | 222 | 6.4 | 19.3 | 0.05 | 0.05 | 0.05 | 79 | 1005.1 |
| 20260504172004 | 11 | 238 | 8.0 | 19.3 | 0.05 | 0.05 | 0.05 | 81 | 1005.1 |
| 20260504171503 | 11 | 244 | 1.6 | 22.5 | 0.05 | 0.05 | 0.05 | 79 | 1005.2 |
| 20260504171004 | 11 | 230 | 4.8 | 19.3 | 0.05 | 0.05 | 0.05 | 84 | 1005.2 |
| 20260504170503 | 11 | 241 | 8.0 | 19.3 | 0.05 | 0.05 | 0.05 | 86 | 1005.1 |
| 20260504141004 | 10 | 232 | 3.2 | 12.9 | 0.00 | 0.18 | 0.00 | 63 | 1005.7 |
| 20260504140503 | 10 | 197 | 3.2 | 9.7 | 0.00 | 0.18 | 0.00 | 62 | 1005.8 |
| 20260504110504 | 4 | 244 | 0.0 | 0.0 | 0.00 | 0.23 | 0.00 | 68 | 1006.9 |
| 20260504100503 | 3 | 244 | 0.0 | 4.8 | 0.00 | 0.23 | 0.00 | 71 | 1006.8 |
| 20260504082004 | -1 | 236 | 0.0 | 0.0 | 0.00 | 0.30 | 0.00 | 94 | 1006.5 |
| 20260504081504 | -1 | 236 | 0.0 | 0.0 | 0.00 | 0.30 | 0.00 | 94 | 1006.4 |
| 20260504080504 | -1 | 236 | 0.0 | 0.0 | 0.00 | 0.30 | 0.00 | 94 | 1006.5 |
| 20260504050004 | 0 | 236 | 0.0 | 0.0 | 0.00 | 0.30 | 0.00 | 91 | 1006.2 |
| 20260504045504 | 0 | 236 | 0.0 | 0.0 | 0.00 | 0.30 | 0.00 | 90 | 1006.2 |
| 20260504045005 | 0 | 236 | 0.0 | 0.0 | 0.00 | 0.30 | 0.00 | 90 | 1006.2 |
| 20260504044004 | 0 | 236 | 0.0 | 0.0 | 0.00 | 0.30 | 0.00 | 89 | 1006.2 |
| 20260504043505 | 0 | 236 | 0.0 | 0.0 | 0.00 | 0.30 | 0.00 | 88 | 1006.2 |
| 20260504043004 | 0 | 236 | 0.0 | 0.0 | 0.00 | 0.30 | 0.00 | 87 | 1006.1 |
| 20260504042505 | 0 | 236 | 0.0 | 0.0 | 0.00 | 0.30 | 0.00 | 87 | 1006.1 |
| 20260504042004 | 0 | 236 | 0.0 | 0.0 | 0.00 | 0.30 | 0.00 | 86 | 1006.1 |
| 20260504041503 | 0 | 236 | 0.0 | 0.0 | 0.00 | 0.30 | 0.00 | 86 | 1006.1 |
| 20260504041003 | 0 | 236 | 0.0 | 0.0 | 0.00 | 0.30 | 0.00 | 85 | 1006.0 |
| 20260504040503 | 1 | 236 | 0.0 | 0.0 | 0.00 | 0.30 | 0.00 | 84 | 1006.0 |
| 20260504040002 | 1 | 236 | 0.0 | 0.0 | 0.00 | 0.30 | 0.00 | 83 | 1006.0 |
| 20260504035503 | 1 | 236 | 0.0 | 0.0 | 0.00 | 0.30 | 0.30 | 82 | 1006.0 |
| 20260504035003 | 1 | 236 | 0.0 | 0.0 | 0.00 | 0.30 | 0.30 | 80 | 1006.0 |
| 20260504034503 | 2 | 236 | 0.0 | 0.0 | 0.00 | 0.30 | 0.30 | 79 | 1005.9 |
| 20260504034002 | 2 | 236 | 0.0 | 0.0 | 0.00 | 0.30 | 0.30 | 77 | 1005.9 |
| 20260504033503 | 2 | 236 | 0.0 | 0.0 | 0.00 | 0.33 | 0.30 | 75 | 1005.9 |
| 20260504033003 | 2 | 236 | 0.0 | 0.0 | 0.00 | 0.33 | 0.30 | 75 | 1005.9 |
| 20260504032502 | 2 | 236 | 0.0 | 0.0 | 0.00 | 0.33 | 0.30 | 75 | 1005.9 |
| 20260504032003 | 2 | 236 | 0.0 | 0.0 | 0.00 | 0.33 | 0.30 | 74 | 1005.9 |
| 20260504031503 | 2 | 236 | 0.0 | 0.0 | 0.00 | 0.33 | 0.30 | 75 | 1005.9 |
| 20260504031002 | 2 | 236 | 0.0 | 0.0 | 0.00 | 0.33 | 0.30 | 77 | 1005.9 |
| 20260504030503 | 2 | 236 | 0.0 | 0.0 | 0.00 | 0.33 | 0.30 | 74 | 1005.8 |
| 20260504025503 | 2 | 236 | 0.0 | 0.0 | 0.00 | 0.33 | 0.30 | 74 | 1005.7 |
| 20260504025002 | 2 | 236 | 0.0 | 0.0 | 0.00 | 0.36 | 0.30 | 73 | 1005.7 |
| 20260504024003 | 3 | 236 | 0.0 | 0.0 | 0.00 | 0.36 | 0.30 | 72 | 1005.7 |
| 20260504023503 | 3 | 236 | 0.0 | 0.0 | 0.00 | 0.36 | 0.30 | 71 | 1005.7 |
| 20260504023003 | 3 | 236 | 0.0 | 0.0 | 0.00 | 0.36 | 0.30 | 69 | 1005.6 |
| 20260504022502 | 3 | 236 | 0.0 | 0.0 | 0.00 | 0.36 | 0.30 | 69 | 1005.7 |
| 20260504022003 | 3 | 236 | 0.0 | 0.0 | 0.00 | 0.36 | 0.30 | 66 | 1005.7 |
| 20260504021503 | 4 | 236 | 0.0 | 0.0 | 0.00 | 0.36 | 0.30 | 66 | 1005.7 |
| 20260504021003 | 4 | 224 | 0.0 | 8.0 | 0.00 | 0.36 | 0.30 | 66 | 1005.7 |
| 20260504020502 | 4 | 221 | 0.0 | 0.0 | 0.00 | 0.36 | 0.30 | 65 | 1005.7 |
| 20260504020003 | 4 | 221 | 0.0 | 0.0 | 0.00 | 0.36 | 0.30 | 64 | 1005.6 |
| 20260504015503 | 5 | 221 | 0.0 | 0.0 | 0.00 | 0.36 | 0.30 | 65 | 1005.6 |
| 20260504015003 | 5 | 221 | 0.0 | 0.0 | 0.00 | 0.36 | 0.30 | 64 | 1005.6 |
| 20260504014503 | 5 | 221 | 0.0 | 0.0 | 0.00 | 0.36 | 0.30 | 63 | 1005.6 |
| 20260504014003 | 5 | 221 | 0.0 | 0.0 | 0.00 | 0.36 | 0.30 | 61 | 1005.5 |
| 20260504013003 | 5 | 221 | 0.0 | 0.0 | 0.00 | 0.36 | 0.30 | 61 | 1005.5 |
| 20260504012503 | 5 | 221 | 0.0 | 3.2 | 0.00 | 0.36 | 0.30 | 61 | 1005.4 |
| 20260504012003 | 5 | 221 | 0.0 | 1.6 | 0.00 | 0.36 | 0.30 | 60 | 1005.3 |
| 20260504011503 | 6 | 220 | 0.0 | 0.0 | 0.00 | 0.36 | 0.30 | 60 | 1005.3 |
| 20260504011003 | 6 | 220 | 0.0 | 1.6 | 0.00 | 0.36 | 0.30 | 59 | 1005.3 |
| 20260504010502 | 6 | 217 | 1.6 | 4.8 | 0.00 | 0.36 | 0.30 | 59 | 1005.2 |
| 20260504010003 | 6 | 302 | 0.0 | 1.6 | 0.00 | 0.36 | 0.30 | 59 | 1005.1 |
| 20260504005503 | 6 | 302 | 1.6 | 9.7 | 0.00 | 0.36 | 0.30 | 60 | 1005.1 |
| 20260504005003 | 6 | 333 | 0.0 | 8.0 | 0.00 | 0.36 | 0.30 | 59 | 1005.0 |
| 20260504004503 | 6 | 333 | 0.0 | 0.0 | 0.00 | 0.36 | 0.30 | 58 | 1004.9 |
| 20260504004003 | 6 | 333 | 0.0 | 8.0 | 0.00 | 0.36 | 0.30 | 57 | 1004.8 |
| 20260504003502 | 6 | 355 | 0.0 | 3.2 | 0.00 | 0.38 | 0.30 | 57 | 1004.7 |
| 20260504002503 | 6 | 302 | 1.6 | 4.8 | 0.00 | 0.38 | 0.30 | 56 | 1004.6 |
| 20260504002003 | 6 | 303 | 0.0 | 4.8 | 0.00 | 0.38 | 0.30 | 56 | 1004.5 |
| 20260504001502 | 6 | 302 | 1.6 | 11.3 | 0.00 | 0.38 | 0.30 | 57 | 1004.5 |
| 20260504001003 | 7 | 300 | 0.0 | 9.7 | 0.00 | 0.38 | 0.30 | 57 | 1004.4 |
| 20260504000503 | 7 | 332 | 1.6 | 9.7 | 0.00 | 0.38 | 0.30 | 54 | 1004.3 |
| 20260504000003 | 7 | 268 | 1.6 | 12.9 | 0.00 | 0.38 | 0.30 | 55 | 1004.2 |
| 20260503235502 | 7 | 225 | 0.0 | 8.0 | 0.00 | 0.38 | 0.30 | 55 | 1004.2 |
| 20260503235003 | 7 | 219 | 1.6 | 16.1 | 0.00 | 0.38 | 0.30 | 54 | 1004.1 |
| 20260503234503 | 7 | 313 | 1.6 | 4.8 | 0.00 | 0.38 | 0.30 | 55 | 1004.0 |
| 20260503233003 | 7 | 306 | 0.0 | 8.0 | 0.00 | 0.38 | 0.30 | 57 | 1003.9 |
| 20260503232502 | 7 | 306 | 0.0 | 0.0 | 0.00 | 0.38 | 0.30 | 58 | 1003.8 |
| 20260503232003 | 7 | 306 | 0.0 | 11.3 | 0.00 | 0.38 | 0.30 | 53 | 1003.8 |
| 20260503231503 | 7 | 319 | 1.6 | 12.9 | 0.00 | 0.38 | 0.30 | 52 | 1003.7 |
| 20260503231003 | 7 | 326 | 4.8 | 12.9 | 0.00 | 0.38 | 0.30 | 52 | 1003.7 |
| 20260503230503 | 7 | 318 | 1.6 | 9.7 | 0.00 | 0.38 | 0.30 | 52 | 1003.7 |
| 20260503230002 | 8 | 350 | 0.0 | 19.3 | 0.00 | 0.41 | 0.30 | 52 | 1003.6 |
| 20260503225503 | 8 | 346 | 3.2 | 11.3 | 0.00 | 0.41 | 0.30 | 50 | 1003.6 |
| 20260503225003 | 8 | 312 | 4.8 | 11.3 | 0.00 | 0.41 | 0.30 | 49 | 1003.5 |
| 20260503224503 | 8 | 300 | 6.4 | 22.5 | 0.00 | 0.41 | 0.30 | 47 | 1003.5 |
| 20260503224003 | 8 | 314 | 1.6 | 9.7 | 0.00 | 0.41 | 0.30 | 49 | 1003.3 |
| 20260503223503 | 8 | 319 | 4.8 | 19.3 | 0.00 | 0.43 | 0.30 | 48 | 1003.3 |
| 20260503223003 | 8 | 300 | 8.0 | 24.1 | 0.00 | 0.43 | 0.30 | 49 | 1003.2 |
| 20260503222503 | 8 | 331 | 8.0 | 14.5 | 0.00 | 0.43 | 0.30 | 52 | 1003.1 |
| 20260503221503 | 8 | 322 | 4.8 | 12.9 | 0.00 | 0.43 | 0.30 | 52 | 1003.0 |
| 20260503221003 | 8 | 329 | 3.2 | 11.3 | 0.00 | 0.43 | 0.30 | 52 | 1002.8 |
| 20260503220503 | 8 | 264 | 1.6 | 12.9 | 0.00 | 0.43 | 0.30 | 52 | 1002.7 |
| 20260503220003 | 9 | 290 | 1.6 | 19.3 | 0.00 | 0.43 | 0.30 | 52 | 1002.6 |
| 20260503215503 | 9 | 304 | 4.8 | 22.5 | 0.00 | 0.43 | 0.30 | 51 | 1002.5 |
| 20260503215003 | 9 | 346 | 1.6 | 9.7 | 0.00 | 0.43 | 0.30 | 53 | 1002.5 |
| 20260503214503 | 9 | 338 | 0.0 | 19.3 | 0.00 | 0.43 | 0.30 | 53 | 1002.5 |
| 20260503214003 | 9 | 306 | 3.2 | 19.3 | 0.00 | 0.43 | 0.30 | 49 | 1002.4 |
| 20260503213503 | 9 | 323 | 0.0 | 12.9 | 0.00 | 0.43 | 0.30 | 50 | 1002.4 |
| 20260503213003 | 10 | 357 | 6.4 | 20.9 | 0.00 | 0.43 | 0.30 | 50 | 1002.4 |